Weather Roundup
Issued by NWS Springfield, MO

Home | Current Version | Previous Version | Text Only | Print | Product List | Glossary On
Versions: 1 2 3 4 5 6 7 8 9 10 11 12 13 14 15 16 17 18 19 20 21 22 23 24 25 26 27 28 29 30 31 32 33 34 35 36 37 38 39 40 41 42 43 44 45 46 47 48 49 50
000
NZUS99 KSGF 031610
HRRSGF

HOURLY WEATHER
NATIONAL WEATHER SERVICE SPRINGFIELD MO
1100 AM CDT THU SEP 03 2015

......SGF CWA......

CITY           SKY/WX    TMP DP  RH WIND       PRES   REMARKS
SPRINGFIELD    SUNNY     83  68  60 SW7       30.04S
JOPLIN         SUNNY     84  69  60 SW12      30.03S
WEST PLAINS    SUNNY     83  68  60 S7        30.08S
ROLLA          PTSUNNY   85  68  56 SW8       30.03F
OSAGE BEACH    MOSUNNY   84  68  58 S6        30.03F
BRANSON        SUNNY     84  70  61 CALM      30.07S

......SURROUNDING SGF CWA......

CITY           SKY/WX    TMP DP  RH WIND       PRES   REMARKS
CHANUTE        SUNNY     83  69  62 S14       30.00R
PARSONS        SUNNY     82  71  69 S8        30.01S
COFFEYVILLE    SUNNY     82  70  66 S13       30.00S
EMPORIA        SUNNY     86  65  49 SW18G26   29.96S
GROVE OK       SUNNY     86  70  58 S7        30.03S HX  90
ROGERS AR      SUNNY     85  68  56 S8        30.06F
SILOAM SPRINGS SUNNY     84  66  54 S7        30.04S
HARRISON AR    SUNNY     83  70  64 SE5       30.07S
NEAR YELLVILLE SUNNY     82  66  57 CALM      30.04S

......KANSAS AND MISSOURI......

CITY           SKY/WX    TMP DP  RH WIND       PRES   REMARKS
KANSAS CTY INT PTSUNNY   85  69  58 S10       29.96F
DOWNTOWN KC    MOSUNNY   87  68  52 S9        29.95S HX  90
COLUMBIA       MOSUNNY   84  71  65 SW8       30.02S
SEDALIA          N/A     87  68  52 SW10      30.02S HX  90
ST JOSEPH      MOSUNNY   80  70  71 S10       29.93S
ST LOUIS       MOSUNNY   88  69  53 SW7       30.02F HX  92
SPIRIT OF STL  MOSUNNY   86  71  60 SW6       30.01S HX  91
KIRKSVILLE     LGT RAIN  85  70  60 S8        30.00S
WICHITA        PTSUNNY   85  65  51 S21       29.94S
TOPEKA         MOSUNNY   84  67  56 S14       29.94S
OLATHE         MOSUNNY   81  69  67 S12       29.98S

......TENNESSEE......

CITY           SKY/WX    TMP DP  RH WIND       PRES   REMARKS
MEMPHIS        MOSUNNY   88  71  57 VRB5      30.03F HX  94
NASHVILLE      MOSUNNY   89  67  47 E5        30.04F HX  92

......ARKANSAS.......

CITY           SKY/WX    TMP DP  RH WIND       PRES   REMARKS
FAYETTEVILLE   SUNNY     82  70  66 S6        30.05S
FT SMITH       SUNNY     83  69  62 NE7       30.01S
LITTLE ROCK    MOSUNNY   88  69  53 E3        30.03S HX  92

......OKLAHOMA.......

CITY           SKY/WX    TMP DP  RH WIND       PRES   REMARKS
TULSA          PTSUNNY   83  69  62 S10       29.98F
PONCA CITY     SUNNY     86  67  52 S9G17     29.97S
MCALESTER      SUNNY     86  68  54 S8        30.01S
OKLAHOMA CITY  MOSUNNY   86  66  51 S17       30.00S

......IOWA............

CITY           SKY/WX    TMP DP  RH WIND       PRES   REMARKS
DES MOINES     PTSUNNY   81  69  67 S12       29.93R
QUAD CITIES    MOSUNNY   84  70  62 SW8       29.95S

......ILLINOIS........

CITY           SKY/WX    TMP DP  RH WIND       PRES   REMARKS
QUINCY         SUNNY     86  69  56 SW10      30.00S HX  90
CHICAGO        MOSUNNY   85  70  60 W9        29.95R



USA.gov is the U.S. government's official web portal to all federal, state and local government web resources and services.